Hovedside
METAR-TAF:

METAR-TAF

Lufthavner :

Sandnessjøen, Norge

Sandnessjøen lufthavn

breddegrad: 65-58N, lengdegrad: 012-28E, høyde over havet: 1 m

Gjeldene værobservasjon

Denne rapporten ble laget for 37 minutter siden, klokken 18:20 UTC
Vind 4 kt fra Nord-nordøst
Temperatur 12°C
Luftfuktighet 76%
Trykk 1024 hPa
Sikt 10 km eller mer
ingen skyer under 1500 m og ingen bygeskyer

METAR: ENST 221820Z 03004KT CAVOK 12/08 Q1024 RMK WIND 300FT 15006KT

Tid: 20:57 (18:57 UTC)


TAF: fraværende

Værobservasjoner og værvarsel for over 4000 flyplasser (METAR- og TAF-rapporter).

Tilgjengelige stasjoner er representert av de røde og gule prikkene på kartet.

Hold musepekeren over prikken for å se navnet på stasjonen.

Klikk så for å se værobservasjoner og -varsler.

For å forandre kartet kan du klikke på den grønne knappen med svart kryss for å zoome inn, på den grønne knappen med strek for å zoome ut, eller på de grønne pilene for å se tilstøtende kart.


METAR-TAF: